Theta_e
321 323 323 323 325 318 319 320 317 317 317 316 317 317 318 317 317 318 320 321 318 329 329 338 338 334 338 341 340 340 339 339 338 338 339 339 337 337 338 338 335 333 329 332 335 335 333 335 341
321 323 323 320 322 319 316 316 316 316 316 316 316 315 315 313 312 315 315 317 320 324 330 331 337 338 337 340 340 338 339 339 339 340 340 339 337 338 338 337 336 333 330 334 334 335 334 334 341
320 321 320 322 316 316 317 315 315 315 314 316 315 312 310 311 312 313 316 318 319 322 329 331 331 332 334 338 340 340 339 338 338 337 339 338 338 337 337 336 335 332 333 335 335 334 334 333 340
318 318 315 318 318 317 314 314 316 316 315 315 315 311 309 310 312 309 310 314 318 318 321 324 327 327 328 329 334 338 339 338 338 337 337 338 338 336 336 335 334 330 330 337 337 337 331 332 338
318 313 318 319 317 315 313 314 315 315 314 315 313 311 309 309 307 307 307 308 309 309 310 313 317 324 326 328 330 333 337 337 337 336 336 336 336 336 334 334 332 329 330 335 337 338 337 328 334
315 312 317 317 316 314 313 314 314 312 311 311 311 310 307 307 306 306 306 305 305 304 306 309 311 312 316 319 326 328 329 332 336 337 336 335 334 334 335 333 331 331 331 334 334 334 333 336 328
319 315 319 317 316 316 315 314 314 312 311 311 311 310 305 305 305 304 304 303 302 302 301 302 308 309 311 312 317 322 326 330 331 331 333 335 335 334 333 332 331 330 333 333 332 331 330 333 331
314 313 319 317 316 317 315 314 313 311 311 310 308 308 305 304 302 302 302 301 300 300 300 301 301 303 301 311 314 315 318 322 326 330 330 329 331 333 333 333 331 330 328 330 331 330 329 331 333
316 318 319 316 316 315 313 314 310 309 307 305 305 304 303 302 301 300 300 300 300 299 299 300 300 299 299 300 300 307 314 315 318 321 326 329 328 327 329 331 332 330 329 328 329 329 329 330 333
316 317 317 314 314 314 313 312 312 310 308 305 303 302 302 301 300 299 299 298 299 299 299 298 299 298 299 299 298 297 298 307 314 315 316 321 326 329 328 328 330 331 329 329 328 328 329 330 334
315 316 315 314 313 313 313 311 310 308 308 305 303 301 300 299 298 298 298 298 297 299 299 298 298 297 298 297 299 298 298 301 302 311 315 317 319 322 328 330 329 330 330 331 331 329 330 331 334
314 315 315 314 312 313 313 311 308 308 305 302 301 300 299 297 296 297 297 296 296 297 299 298 297 296 296 296 296 297 299 301 299 300 304 313 318 322 323 326 329 330 330 331 331 331 330 331 334
315 315 314 313 312 311 311 311 307 303 302 301 301 299 297 296 297 297 296 295 295 296 297 296 297 296 295 295 295 295 297 301 302 299 301 307 314 318 322 323 325 328 330 330 330 330 330 331 332
315 314 313 313 311 312 311 309 307 304 300 301 300 298 297 297 297 297 295 295 294 294 293 293 294 294 295 295 295 294 294 297 300 301 300 306 305 309 316 321 323 325 327 329 329 329 329 330 330
312 313 312 312 311 311 311 310 309 303 301 301 299 297 297 297 297 296 295 294 294 293 293 292 292 293 293 293 293 294 294 294 295 299 301 299 301 301 298 307 318 323 325 327 329 327 328 329 329
313 312 313 313 311 311 309 308 305 302 300 298 296 295 296 296 294 294 294 293 292 292 293 292 292 292 293 292 292 293 293 293 293 296 298 299 299 299 299 308 308 314 323 326 327 327 323 325 327
313 313 311 313 310 311 309 309 305 303 300 297 294 294 295 293 293 294 293 292 292 291 292 292 292 292 292 292 292 292 292 293 293 293 294 296 298 298 302 304 304 303 308 323 326 325 323 321 321
310 308 309 310 311 309 310 309 305 302 299 295 294 293 293 292 292 294 293 292 291 291 292 291 291 291 291 291 291 291 292 293 292 292 292 295 296 297 300 299 300 299 301 306 323 324 323 322 320
310 310 309 309 310 309 308 309 304 301 296 294 293 292 291 291 293 293 292 292 291 291 291 291 291 290 290 290 290 290 292 291 291 291 292 294 295 297 297 299 299 299 300 304 304 323 323 322 321
311 311 309 308 309 308 307 307 307 300 297 295 293 292 291 291 292 292 292 292 291 291 291 290 290 289 289 289 289 289 288 288 289 289 291 292 293 294 297 299 299 298 300 302 303 304 323 323 322
310 309 308 309 307 305 305 304 302 299 297 295 294 292 291 291 292 291 291 291 291 290 290 289 289 289 288 287 286 286 285 284 285 288 289 290 290 292 296 297 299 297 296 302 302 303 304 322 322
308 306 306 306 305 305 304 305 301 297 297 296 294 290 290 290 291 290 291 291 290 290 290 289 289 288 286 285 284 282 281 281 281 282 282 283 287 291 294 296 298 298 296 295 302 302 303 309 321
308 304 304 304 304 304 304 303 302 298 297 297 292 290 290 290 290 290 290 291 290 290 289 289 288 286 285 284 282 281 280 280 279 279 279 280 284 288 291 292 296 298 296 295 298 302 302 302 320
305 306 304 303 302 304 303 303 302 297 298 296 291 290 290 290 290 290 291 290 289 289 289 288 287 285 284 283 281 280 279 279 278 278 279 280 282 285 286 292 296 297 296 295 296 298 303 303 312
306 303 306 306 305 308 300 300 303 299 297 295 290 289 289 289 289 288 288 288 289 288 288 287 286 285 283 282 280 279 279 278 278 278 278 279 280 282 283 285 288 296 297 295 294 296 300 302 300
306 302 306 307 306 308 300 303 302 295 293 291 290 289 289 289 288 288 288 288 288 288 287 286 285 284 282 281 280 279 278 277 276 277 277 277 277 279 281 283 285 291 296 295 294 295 299 302 302
303 302 301 303 288 295 299 298 296 294 293 291 290 289 288 289 289 288 288 288 288 288 287 286 284 283 281 280 279 278 277 276 275 276 275 276 278 278 279 283 286 287 296 295 294 294 296 302 303
299 299 301 301 307 298 300 301 302 294 293 291 290 289 289 290 289 287 287 288 288 287 286 285 283 281 280 279 278 278 277 276 275 274 275 275 275 276 279 281 282 285 290 295 294 293 294 299 302
294 297 297 298 302 304 300 304 296 295 294 291 290 289 289 288 288 287 287 287 287 286 284 283 282 280 278 277 277 277 276 275 274 273 273 273 275 275 277 277 280 283 285 293 294 293 293 296 300
296 298 299 302 303 298 299 301 296 295 293 290 289 289 289 289 288 286 286 286 285 284 283 282 280 278 277 276 275 275 275 274 273 273 272 272 272 274 275 276 278 280 283 287 293 293 292 293 296
Wind_Speed
4 4 8 2 4 5 2 1 3 6 3 0 2 5 4 4 3 4 9 22 26 15 15 13 14 6 4 7 9 10 11 10 11 11 10 9 9 9 9 10 13 14 14 14 13 13 14 13 14
3 4 1 1 4 4 3 3 6 5 4 2 4 4 6 6 8 8 16 27 24 22 15 14 14 11 6 6 9 11 12 12 13 13 13 12 11 12 12 11 13 14 14 14 15 15 15 15 15
7 3 3 3 3 4 4 1 4 3 6 2 2 9 7 9 10 5 22 23 22 23 21 18 17 16 14 10 10 11 14 15 16 16 15 14 15 15 16 15 15 14 14 14 15 16 17 17 16
6 5 4 4 5 5 7 2 3 4 4 5 4 8 6 25 10 17 25 25 24 25 23 22 21 21 21 18 14 13 15 16 17 17 17 18 19 17 18 18 18 16 15 15 16 17 17 18 18
1 3 4 1 3 5 4 4 3 4 5 3 5 3 6 16 24 28 32 34 35 34 29 25 21 19 22 23 21 16 17 18 20 21 22 22 22 22 21 20 19 18 18 18 18 20 18 19 21
4 3 3 2 3 5 4 5 4 4 5 4 8 7 4 13 28 32 33 35 36 37 37 37 33 26 21 21 21 25 24 21 22 23 24 25 24 25 24 23 22 20 21 19 20 19 20 21 23
3 3 3 1 5 4 2 4 4 5 3 5 1 6 5 15 24 28 30 31 34 34 37 37 36 38 34 25 24 22 22 25 24 25 27 26 26 26 26 26 25 25 24 24 23 22 22 22 23
3 3 4 2 2 2 0 3 5 8 5 1 4 5 3 6 22 24 30 33 34 36 38 38 38 37 37 34 33 26 24 22 24 25 26 26 29 29 29 29 28 28 28 27 26 25 24 23 25
2 4 2 3 4 3 4 3 6 5 10 7 6 6 8 19 25 31 29 33 34 35 36 35 36 37 36 35 35 32 29 29 28 29 28 28 26 30 30 32 32 31 30 29 28 27 26 25 26
4 3 0 1 2 3 1 4 5 5 8 6 8 10 20 24 25 25 25 24 30 31 31 33 34 37 38 38 39 37 36 31 30 32 33 31 31 30 32 32 33 33 31 30 30 29 28 25 27
2 2 1 2 4 3 2 4 3 10 4 1 8 7 12 22 24 23 23 24 24 23 25 30 31 35 35 37 37 40 37 35 33 31 33 34 35 33 30 33 36 36 34 32 29 30 28 27 30
1 3 3 2 4 3 1 3 4 3 5 8 10 11 15 11 14 18 19 21 22 24 23 27 27 29 31 30 31 33 34 32 36 38 34 35 33 32 33 32 37 39 37 34 33 31 30 30 31
3 3 1 2 4 3 2 5 7 7 8 10 14 13 10 12 16 17 17 20 23 25 24 26 27 30 32 32 33 31 31 31 32 36 37 34 34 32 31 32 34 39 39 37 36 33 33 31 33
1 2 5 1 4 3 3 6 7 6 6 9 10 9 8 12 13 14 16 19 21 21 23 27 26 29 36 37 41 39 33 30 31 33 35 33 34 34 33 33 32 36 37 40 39 34 35 34 37
1 3 4 4 4 4 3 3 6 12 7 10 9 8 8 10 14 12 10 14 20 23 25 33 32 35 40 39 38 39 41 44 39 35 35 36 35 34 38 36 35 34 32 37 38 33 35 36 38
0 3 2 4 7 4 3 6 5 12 13 10 9 7 8 5 11 11 13 18 24 29 26 34 40 38 40 39 41 39 40 42 41 39 43 40 39 37 38 29 34 34 34 35 35 36 36 38 39
3 3 3 1 7 3 3 5 9 10 12 10 8 8 7 6 9 11 14 21 28 31 27 34 36 36 38 38 38 37 38 36 37 38 42 43 34 40 30 32 35 40 40 36 38 41 42 37 36
4 4 4 5 4 6 7 7 6 10 11 10 8 7 7 6 4 10 14 19 25 28 27 30 32 33 36 36 38 37 35 35 34 40 40 42 39 39 32 37 32 35 36 41 40 41 43 41 38
4 5 6 7 6 8 8 7 11 9 8 10 9 8 7 7 5 10 11 17 25 27 26 27 29 32 34 35 37 38 34 37 43 41 40 39 39 35 38 31 35 28 31 36 43 32 44 39 37
6 7 8 8 3 1 6 10 6 16 13 11 10 8 7 5 4 5 8 16 20 24 23 28 29 32 36 36 35 34 40 41 40 41 39 39 40 41 38 31 31 25 29 34 37 41 35 44 44
5 6 5 7 5 6 7 8 6 6 6 8 7 7 6 7 5 3 8 14 18 22 22 27 30 32 33 34 36 36 35 38 36 34 34 33 40 37 39 37 29 23 27 35 31 36 39 22 36
6 2 2 5 4 4 2 8 4 9 10 11 9 8 7 6 5 3 5 9 13 18 24 30 30 32 31 33 33 33 34 36 37 39 39 43 38 39 35 36 31 30 22 34 30 26 36 39 30
5 2 5 5 9 2 6 5 5 13 12 12 8 7 7 7 6 1 6 11 12 17 26 27 28 28 30 30 31 33 34 35 38 37 38 39 35 35 35 36 36 29 27 27 34 31 34 43 34
2 3 5 4 2 4 9 11 4 7 15 14 7 8 7 6 4 2 9 11 13 21 25 30 29 30 31 31 33 31 32 37 36 37 35 33 34 33 35 30 36 33 24 26 30 28 31 46 38
2 3 4 5 2 7 2 2 14 6 8 18 13 9 8 6 3 5 8 10 19 23 25 28 28 33 33 32 32 30 33 34 35 36 32 31 33 34 35 36 36 30 27 25 30 34 29 28 40
6 6 4 7 4 6 6 7 5 2 11 13 10 9 7 6 5 7 6 18 21 17 26 28 30 33 34 33 34 33 33 29 36 33 32 35 36 36 37 36 38 39 29 25 25 30 28 31 46
3 4 1 2 2 2 4 5 3 3 8 8 9 8 7 7 2 6 11 15 18 19 28 30 31 33 34 35 35 36 35 36 35 32 39 33 31 35 38 34 31 38 29 27 23 24 30 24 42
2 3 2 1 4 7 6 7 8 12 14 8 8 8 6 2 3 4 8 15 12 21 26 28 29 32 34 36 36 36 40 37 34 36 34 32 38 37 36 33 35 34 33 27 23 24 25 26 29
2 3 4 2 4 5 2 7 4 18 16 12 8 8 7 5 6 6 7 14 13 20 24 27 29 32 34 34 37 37 40 38 36 34 33 34 33 34 35 36 34 32 34 28 22 22 25 24 28
3 9 10 5 6 4 7 18 7 13 13 10 9 8 7 5 2 4 10 9 14 20 23 25 29 32 33 34 36 36 38 39 36 34 34 35 35 32 34 33 34 33 31 33 21 21 19 26 27
Wind_Direction
15 24 316 335 62 61 51 80 83 45 52 15 110 86 82 33 66 87 20 12 13 19 5 357 360 349 270 255 250 246 250 249 247 247 251 260 273 281 267 271 277 276 274 272 267 261 253 244 236
11 18 287 72 84 84 307 65 73 121 147 24 85 63 71 46 18 98 16 18 19 18 5 358 1 4 332 284 276 271 264 257 254 249 247 251 265 270 269 265 268 272 272 272 269 264 258 244 239
341 304 81 105 129 131 130 334 61 140 112 99 69 57 31 313 22 32 15 23 32 27 24 16 358 351 337 308 289 282 274 269 265 261 260 257 258 258 265 272 272 266 263 265 267 263 260 249 244
342 20 16 84 125 25 129 131 73 127 43 38 126 64 103 23 38 39 42 40 42 35 28 15 0 348 345 339 291 286 281 277 273 268 261 260 261 260 262 271 271 267 254 256 257 259 258 257 247
323 69 35 27 63 109 94 92 59 9 125 158 88 84 90 26 52 48 43 42 42 37 31 24 19 8 352 347 345 306 284 283 279 276 274 269 269 267 265 266 266 265 254 252 253 255 256 256 244
15 93 48 80 115 134 60 64 91 70 39 16 76 99 56 21 46 44 46 43 42 37 34 31 28 18 8 3 347 339 335 302 290 284 279 278 272 269 269 268 263 257 255 258 251 254 251 251 243
99 73 226 144 163 66 129 95 85 93 63 5 7 90 152 29 47 50 48 45 42 37 34 30 29 25 24 12 6 352 338 325 318 303 291 285 277 274 269 266 265 262 259 257 258 254 252 249 244
96 96 309 37 111 103 312 66 120 92 23 163 38 85 47 12 53 50 45 41 36 34 31 27 28 26 23 20 17 354 346 336 323 315 302 295 288 277 273 269 264 262 261 259 256 256 253 252 240
77 67 327 9 70 122 343 106 41 48 85 41 50 92 104 62 51 46 40 36 33 28 28 27 21 20 18 17 13 10 4 351 338 324 317 306 295 286 278 272 269 265 260 258 256 254 255 253 239
74 92 287 25 64 129 106 119 123 80 99 77 84 77 77 62 55 50 40 31 29 24 21 21 18 13 9 6 4 3 360 354 350 342 330 318 308 289 280 273 267 263 262 257 254 253 252 251 237
346 202 36 52 108 62 55 53 11 128 58 120 142 118 82 67 52 46 43 37 26 19 19 14 14 7 6 1 359 356 353 348 347 339 334 327 316 306 291 277 269 262 255 250 248 248 247 240 229
19 281 67 39 52 67 51 80 69 40 123 148 126 115 91 77 64 50 42 29 20 18 15 8 9 6 3 358 356 350 348 345 339 336 332 328 323 312 305 293 279 263 251 245 245 242 242 233 222
174 244 347 69 78 87 2 140 132 115 146 122 103 91 88 76 65 50 40 28 23 17 16 7 360 355 356 352 349 347 341 336 333 332 329 329 324 315 305 295 287 277 256 245 242 240 230 222 216
315 330 293 145 156 157 139 131 90 231 145 107 103 103 101 95 73 48 34 24 21 18 9 4 0 354 353 349 344 341 338 332 324 323 325 324 320 320 318 301 286 281 265 250 240 230 221 216 212
88 345 17 201 200 227 152 257 185 151 150 128 127 124 118 111 76 61 41 32 22 9 1 4 357 352 352 347 338 331 328 327 325 316 315 316 317 318 317 310 301 280 268 251 239 225 211 207 204
143 135 156 245 161 250 112 274 149 162 142 145 134 127 120 122 90 62 55 38 18 4 1 357 357 351 347 343 335 326 320 318 321 314 312 309 308 313 320 308 305 307 274 243 229 218 206 195 195
356 267 257 294 207 160 164 249 169 174 156 149 150 140 129 103 75 65 55 31 12 4 358 355 354 349 343 339 331 323 313 308 311 311 305 300 303 308 310 308 309 310 312 252 231 215 202 189 185
274 299 295 266 230 202 202 241 178 174 157 158 153 145 136 113 91 69 52 23 7 3 359 352 352 346 341 336 329 322 316 308 308 310 301 298 301 301 293 301 304 314 306 295 243 225 207 196 184
262 260 251 262 247 202 227 238 190 179 159 165 168 160 143 109 96 73 43 14 3 1 356 350 348 345 343 336 330 323 320 318 312 307 298 293 291 295 293 292 300 309 303 293 290 236 213 200 189
232 261 270 286 167 314 259 249 238 184 181 169 165 163 142 119 87 77 32 6 360 353 351 349 347 345 341 336 331 322 315 311 309 309 305 303 296 294 286 286 292 303 306 300 285 303 240 193 181
247 228 252 256 332 297 280 274 188 191 155 171 168 142 137 135 113 57 16 354 351 347 349 346 344 339 338 333 328 324 319 315 315 314 317 311 307 298 290 283 281 290 296 290 280 281 301 220 180
261 163 225 282 354 242 119 288 213 179 182 183 177 159 146 128 107 65 341 326 339 336 346 345 342 333 329 330 327 323 319 313 313 310 307 304 311 303 295 287 276 281 299 290 267 281 275 293 184
241 52 249 249 246 359 233 251 255 167 204 195 171 164 148 144 123 41 310 313 320 337 343 345 330 323 325 327 328 321 314 308 307 306 307 304 302 307 304 287 275 271 293 308 285 272 276 275 217
13 309 262 215 169 256 232 203 228 182 216 175 167 161 150 137 128 280 286 292 312 340 348 332 325 322 324 326 325 315 310 307 305 306 306 308 304 302 303 312 273 269 278 297 295 291 275 260 272
78 50 320 339 332 238 182 284 246 212 188 171 159 160 156 143 187 249 263 286 351 343 334 327 321 323 322 320 321 315 311 305 307 304 303 304 306 303 298 302 311 267 269 291 289 296 286 289 286
192 165 169 263 240 275 324 254 240 147 122 127 141 148 150 168 208 240 290 353 332 328 330 324 325 318 317 318 316 316 312 305 308 299 302 298 295 293 294 295 297 302 264 274 300 290 295 263 271
179 182 162 287 104 5 240 278 340 131 139 142 147 152 170 179 239 359 332 324 321 325 329 320 316 316 317 315 315 317 314 309 304 300 302 294 292 296 297 295 296 308 263 269 294 290 283 273 270
218 171 85 72 288 273 266 260 232 190 197 181 168 162 167 139 348 279 273 305 311 326 319 314 313 317 314 314 315 313 314 310 304 305 300 300 297 293 292 295 299 294 301 258 283 287 294 290 271
143 227 229 188 174 235 281 255 234 192 189 183 181 165 176 204 226 247 296 311 316 320 317 316 316 317 315 315 314 311 313 311 306 304 303 301 299 302 299 300 296 296 291 270 262 271 291 293 283
179 202 189 209 222 240 256 272 174 185 181 162 166 173 183 198 248 283 292 301 324 322 319 316 317 317 316 313 312 310 313 312 308 303 304 301 298 295 294 293 291 291 291 296 257 264 284 288 301